Orbital Elements at Epoch 2459000.5 (2020-May-31.0) TDB
Reference: JPL 32 (heliocentric ecliptic J2000)
Element | Value | Uncertainty (1-sigma) | Units |
e | .2706037360547078 | 4.4089e-08 | |
a | 2.546502306902787 | 7.6742e-09 | au |
q | 1.857409268782961 | 1.1452e-07 | au |
i | 4.806861741877474 | 4.3355e-06 | deg |
node | 157.0108546519448 | 3.0935e-05 | deg |
peri | 190.2953639483128 | 3.1445e-05 | deg |
M | 143.8250913971835 | 5.7146e-06 | deg |
tp | 2458407.510920174271 (2018-Oct-16.01092017) | 2.2112e-05 | TDB |
period | 1484.275564600426 4.06 | 6.7096e-06 1.837e-08 | d yr |
n | .242542563244928 | 1.0964e-09 | deg/d |
Q | 3.235595345022613 | 9.7509e-09 | au |
|
| | Orbit Determination Parameters
Additional Information
|